Weather History for Crestview, FL

Change the Weather History Date:

Monday, December 30, 2013

  Actual Average Record
Temperature  
Mean Temperature 46 °F -  
Max Temperature 59 °F 58 °F 78 °F (1996)
Min Temperature 33 °F 43 °F 18 °F (1983)
Degree Days  
Heating Degree Days 19    
Moisture  
Dew Point 39 °F    
Average Humidity 90    
Maximum Humidity 100    
Minimum Humidity 62    
Precipitation  
Precipitation 0.00 in - - ()
Sea Level Pressure  
Sea Level Pressure 30.18 in    
Wind  
Wind Speed 0 mph (North)    
Max Wind Speed 4 mph    
Max Gust Speed -    
Visibility 6 miles    
Events Fog    
Averages and records for this station are not official NWS values.
T = Trace of Precipitation, MM = Missing Value Source: NWS Daily Summary

Daily Weather History Graph

Daily Weather History Graph

Search for Another Location

Airport:

Trip Planner

Search our weather history database for the weather conditions in past years. The results will help you decide how hot, cold, wet, or windy it might be!

Date:

Astronomy

Dec. 30, 2013 Rise Set
Actual Time 6:43 AM CST 4:54 PM CST
Civil Twilight 6:16 AM CST 5:20 PM CST
Nautical Twilight 5:46 AM CST 5:50 PM CST
Astronomical Twilight 5:17 AM CST 6:20 PM CST
Moon 4:35 AM CST (12/30) 3:24 PM CST (12/30)
Length of Visible Light 11h 04m
Length of Day
10h 11m
Waning Crescent, 4% of the Moon is Illuminated
Dec 30
Waning Crescent
Jan 1
New
Jan 7
First Quarter
Jan 15
Full
Jan 23
Last Quarter

Hourly Weather History & Observations

Time (CST) Temp. Windchill Dew Point Humidity Pressure Visibility Wind Dir Wind Speed Gust Speed Precip Events Conditions
12:53 AM 39.9 °F - 37.9 °F 93% 30.13 in 6.0 mi Calm Calm - N/A   Clear
1:36 AM 37.0 °F - 35.1 °F 93% 30.14 in 2.0 mi Calm Calm - N/A   Partly Cloudy
1:45 AM 37.0 °F - 35.1 °F 93% 30.14 in 6.0 mi Calm Calm - N/A   Mostly Cloudy
1:53 AM 37.0 °F - 36.0 °F 96% 30.14 in 4.0 mi Calm Calm - N/A   Mostly Cloudy
2:02 AM 36.0 °F - 35.1 °F 97% 30.13 in 2.5 mi Calm Calm - N/A   Overcast
2:11 AM 36.0 °F - 35.1 °F 97% 30.13 in 5.0 mi Calm Calm - N/A   Mostly Cloudy
2:31 AM 36.0 °F - 34.0 °F 93% 30.13 in 1.8 mi Calm Calm - N/A   Overcast
2:37 AM 35.1 °F - 34.0 °F 96% 30.13 in 0.5 mi Calm Calm - N/A Fog Fog
2:53 AM 36.0 °F - 34.0 °F 93% 30.13 in 0.5 mi Calm Calm - N/A Fog Fog
3:53 AM 35.1 °F - 34.0 °F 96% 30.15 in 1.0 mi Calm Calm - N/A   Mist
4:02 AM 34.0 °F - 33.1 °F 96% 30.15 in 0.8 mi Calm Calm - N/A   Mist
4:10 AM 35.1 °F - 34.0 °F 96% 30.15 in 0.2 mi Calm Calm - N/A Fog Fog
4:28 AM 35.1 °F - 34.0 °F 96% 30.15 in 1.0 mi Calm Calm - N/A   Mist
4:34 AM 35.1 °F - 34.0 °F 96% 30.15 in 3.0 mi Calm Calm - N/A   Mostly Cloudy
4:36 AM 35.1 °F - 34.0 °F 96% 30.15 in 2.0 mi Calm Calm - N/A   Scattered Clouds
4:51 AM 33.8 °F - 33.8 °F 100% 30.15 in 6.0 mi Calm Calm - N/A   Partly Cloudy
4:53 AM 34.0 °F - 33.1 °F 96% 30.15 in 6.0 mi Calm Calm - N/A   Clear
5:00 AM 34.0 °F - 33.1 °F 96% 30.15 in 7.0 mi Calm Calm - N/A   Scattered Clouds
5:07 AM 34.0 °F - 33.1 °F 96% 30.15 in 2.5 mi Calm Calm - N/A   Mostly Cloudy
5:13 AM 33.1 °F 30.0 °F 32.0 °F 96% 30.15 in 0.8 mi East 3.5 mph - N/A   Mist
5:21 AM 34.0 °F - 33.1 °F 96% 30.15 in 0.5 mi Calm Calm - N/A Fog Fog
5:53 AM 35.1 °F - 34.0 °F 96% 30.17 in 0.5 mi Calm Calm - N/A Fog Fog
6:13 AM 36.0 °F - 34.0 °F 93% 30.16 in 1.0 mi Calm Calm - N/A   Mist
6:19 AM 36.0 °F - 35.1 °F 97% 30.16 in 4.0 mi Calm Calm - N/A   Mostly Cloudy
6:53 AM 36.0 °F - 35.1 °F 97% 30.17 in 8.0 mi Calm Calm - N/A   Mostly Cloudy
7:09 AM 37.0 °F - 35.1 °F 93% 30.18 in 8.0 mi Calm Calm - N/A   Scattered Clouds
7:53 AM 39.9 °F - 39.0 °F 97% 30.19 in 8.0 mi Calm Calm - N/A   Clear
8:53 AM 44.1 °F - 42.1 °F 93% 30.21 in 9.0 mi Calm Calm - N/A   Clear
9:53 AM 50.0 °F - 46.0 °F 86% 30.23 in 10.0 mi Calm Calm - N/A   Clear
10:53 AM 55.9 °F - 48.0 °F 75% 30.22 in 10.0 mi ENE 3.5 mph - N/A   Clear
11:53 AM 59.0 °F - 46.0 °F 62% 30.20 in 10.0 mi Calm Calm - N/A   Clear
12:53 PM 59.0 °F - 46.9 °F 64% 30.19 in 10.0 mi Calm Calm - N/A   Clear
1:53 PM 59.0 °F - 46.0 °F 62% 30.16 in 10.0 mi Calm Calm - N/A   Clear
2:53 PM 57.9 °F - 48.0 °F 70% 30.17 in 10.0 mi Calm Calm - N/A   Mostly Cloudy
3:53 PM 55.9 °F - 51.1 °F 84% 30.19 in 10.0 mi Calm Calm - N/A   Scattered Clouds
4:53 PM 53.1 °F - 50.0 °F 89% 30.20 in 10.0 mi Calm Calm - 0.00 in   Scattered Clouds
5:53 PM 53.1 °F - 50.0 °F 89% 30.23 in 9.0 mi WNW 3.5 mph - N/A   Mostly Cloudy
6:53 PM 51.1 °F - 48.9 °F 92% 30.21 in 9.0 mi Calm Calm - N/A   Scattered Clouds
7:53 PM 51.1 °F - 48.9 °F 92% 30.25 in 8.0 mi Calm Calm - N/A   Clear
8:53 PM 51.1 °F - 48.9 °F 92% 30.26 in 8.0 mi Calm Calm - N/A   Clear
9:53 PM 52.0 °F - 48.0 °F 86% 30.26 in 10.0 mi NW 3.5 mph - N/A   Clear
10:53 PM 52.0 °F - 48.0 °F 86% 30.27 in 10.0 mi NW 3.5 mph - N/A   Clear
11:53 PM 51.1 °F - 48.0 °F 89% 30.28 in 10.0 mi Calm Calm - N/A   Partly Cloudy